Location: Kershaw
(34.5481°N, 80.5823°W)
Time: 20:20:20
(UTC+00:00)

deb Explorer IX - Pass Details

Date: 09 October 2022
Orbit: 533 x 1057 km, 38.8° (Epoch: 06 December)

Event Time Altitude Azimuth Distance (km) Brightness Sun altitude
Exits shadow 08:56:30 32° 81° (E) 1,020 ? -30.8°
Drops below altitude 10° 08:59:06 10° 73° (ENE) 1,993 ? -30.3°
Sets 09:01:36 0° 71° (ENE) 2,983 ? -29.8°
